Mobile, AL

6:25 AM CDT on May 27, 2017 (GMT -0500)
Mobile Regional

Weather History for KMOB - March, 2014

Change the Weather History Date:

Wednesday, March 12, 2014

  Actual Average Record
Temperature  
Mean Temperature 56 °F 59 °F  
Max Temperature 66 °F 70 °F 85 °F (1989)
Min Temperature 45 °F 48 °F 27 °F (1998)
Degree Days  
Heating Degree Days 9 7  
Month to date heating degree days 132 92  
Since 1 July heating degree days 1835 1534  
Cooling Degree Days 0 1  
Month to date cooling degree days 0 12  
Year to date cooling degree days 12 28  
Growing Degree Days 7 (Base 50)    
Moisture  
Dew Point 54 °F    
Average Humidity 76    
Maximum Humidity 100    
Minimum Humidity 51    
Precipitation  
Precipitation 0.00 in 0.19 in 2.85 in (2001)
Month to date precipitation 0.94 2.40  
Year to date precipitation 8.06 13.17  
Snow  
Snow 0.00 in 0.00 in - ()
Month to date snowfall 0.0 0.0  
Since 1 July snowfall 1.3 0.1  
Snow Depth 0.00 in    
Sea Level Pressure  
Sea Level Pressure 29.84 in    
Wind  
Wind Speed 12 mph (WNW)    
Max Wind Speed 26 mph    
Max Gust Speed 34 mph    
Visibility 7 miles    
Events      
T = Trace of Precipitation, MM = Missing Value Source: NWS Daily Summary

Daily Weather History Graph

Daily Weather History Graph

Search for Another Location

Airport or City:

Trip Planner

Search our weather history database for the weather conditions in past years. The results will help you decide how hot, cold, wet, or windy it might be!

Date:

Astronomy

Mar. 12, 2014 Rise Set
Actual Time 7:06 AM CDT 6:59 PM CDT
Civil Twilight 6:42 AM CDT 7:23 PM CDT
Nautical Twilight 6:14 AM CDT 7:51 PM CDT
Astronomical Twilight 5:46 AM CDT 8:19 PM CDT
Moon 3:40 PM CDT (3/12) 4:25 AM CDT (3/12)
Length of Visible Light 12h 40m
Length of Day
11h 52m
Waxing Gibbous, 85% of the Moon is Illuminated
Mar 12
Waxing Gibbous
Mar 16
Full
Mar 23
Last Quarter
Mar 30
New
Apr 7
First Quarter

Hourly Weather History & Observations

Time (CDT) Temp. Dew Point Humidity Pressure Visibility Wind Dir Wind Speed Gust Speed Precip Events Conditions
12:43 AM 62.1 °F 62.1 °F 100% 29.72 in 2.5 mi WSW 5.8 mph - N/A   Overcast
12:51 AM 62.6 °F 62.6 °F 100% 29.73 in 4.0 mi West 5.8 mph - N/A   Overcast
12:56 AM 62.1 °F 62.1 °F 100% 29.72 in 5.0 mi WSW 5.8 mph - N/A   Overcast
1:24 AM 61.0 °F 61.0 °F 100% 29.73 in 1.8 mi West 9.2 mph - N/A   Overcast
1:34 AM 61.0 °F 61.0 °F 100% 29.72 in 3.0 mi WSW 5.8 mph - N/A   Overcast
1:56 AM 61.0 °F 61.0 °F 100% 29.71 in 6.0 mi SW 6.9 mph - N/A   Overcast
2:56 AM 62.1 °F 62.1 °F 100% 29.73 in 6.0 mi WSW 8.1 mph - N/A   Overcast
3:56 AM 62.1 °F 61.0 °F 96% 29.72 in 10.0 mi West 8.1 mph - N/A   Overcast
4:56 AM 62.1 °F 61.0 °F 96% 29.73 in 10.0 mi West 6.9 mph - N/A   Overcast
5:56 AM 61.0 °F 59.0 °F 93% 29.75 in 7.0 mi West 9.2 mph - N/A   Overcast
6:38 AM 61.0 °F 57.9 °F 90% 29.77 in 6.0 mi West 8.1 mph - N/A   Overcast
6:56 AM 60.1 °F 57.0 °F 90% 29.77 in 6.0 mi West 16.1 mph 24.2 mph N/A   Overcast
7:56 AM 60.1 °F 57.0 °F 90% 29.78 in 6.0 mi West 6.9 mph - N/A   Mostly Cloudy
8:56 AM 61.0 °F 57.0 °F 87% 29.81 in 6.0 mi West 6.9 mph - N/A   Overcast
9:56 AM 62.1 °F 57.9 °F 86% 29.82 in 6.0 mi West 9.2 mph - N/A   Overcast
10:22 AM 62.1 °F 57.9 °F 86% 29.83 in 6.0 mi West 11.5 mph - N/A   Overcast
10:56 AM 63.0 °F 57.9 °F 84% 29.83 in 7.0 mi West 9.2 mph - N/A   Overcast
11:56 AM 63.0 °F 59.0 °F 87% 29.84 in 7.0 mi West 9.2 mph - N/A   Overcast
12:56 PM 63.0 °F 59.0 °F 87% 29.83 in 7.0 mi WNW 9.2 mph - N/A   Overcast
1:09 PM 63.0 °F 59.0 °F 87% 29.84 in 7.0 mi West 10.4 mph - N/A   Overcast
1:30 PM 63.0 °F 59.0 °F 87% 29.83 in 5.0 mi West 8.1 mph 17.3 mph N/A   Overcast
1:56 PM 62.1 °F 59.0 °F 90% 29.83 in 5.0 mi WNW 11.5 mph - N/A   Overcast
2:56 PM 64.0 °F 57.9 °F 80% 29.83 in 6.0 mi WNW 8.1 mph - N/A   Haze
3:22 PM 64.9 °F 54.0 °F 68% 29.84 in 7.0 mi NW 15.0 mph 29.9 mph N/A   Mostly Cloudy
3:56 PM 66.0 °F 51.1 °F 59% 29.85 in 7.0 mi NW 13.8 mph 25.3 mph N/A   Mostly Cloudy
4:56 PM 63.0 °F 46.9 °F 56% 29.87 in 10.0 mi NW 17.3 mph 26.5 mph N/A   Partly Cloudy
5:56 PM 61.0 °F 43.0 °F 52% 29.91 in 10.0 mi North 20.7 mph 26.5 mph N/A   Partly Cloudy
6:56 PM 57.0 °F 41.0 °F 55% 29.94 in 10.0 mi NNW 17.3 mph 26.5 mph N/A   Partly Cloudy
7:56 PM 55.0 °F 39.0 °F 55% 29.99 in 10.0 mi NNW 17.3 mph - N/A   Clear
8:56 PM 53.1 °F 37.9 °F 57% 30.03 in 10.0 mi NNW 16.1 mph - N/A   Clear
9:56 PM 51.1 °F 36.0 °F 56% 30.08 in 10.0 mi North 15.0 mph 25.3 mph N/A   Clear
10:56 PM 48.9 °F 35.1 °F 59% 30.12 in 10.0 mi North 15.0 mph - N/A   Clear
11:56 PM 46.9 °F 34.0 °F 61% 30.14 in 10.0 mi North 12.7 mph - N/A   Clear